www.pogodaiklimat.ru

Погода и климат >> Архив погоды >> Индия >> Орисса >> Джхарсугуда


ПОГОДА в Джхарсугуде

  • Прогноз погоды в Джхарсугуде
  • Монитор погоды в Джхарсугуде

АРХИВ ПОГОДЫ в Джхарсугуде

Время (UTC), дата Ветер
(напр.,м/с)
 
Видим.   Явления Облачность Т
(С)
Тd
(С)
f
(%)
Тe
(С)
Тes
(С)
Комфортность P
(гПа)
Po
(гПа)
Тmin
(С)
Tmax
(С)
R
(мм)
R24
(мм)
S
(см)
21 16.01 штиль 0 2000 м мгла ясно +11.4 +8.1 80 +11 +11 1016.7 1017.0
00 17.01 штиль 0 1000 м дымка ясно +9.4 +7.7 89 +9 +9 1015.9 1016.0
03 17.01 штиль 0 4000 м мгла ясно +13.6 +7.5 67 +13 +19 1018.1 1018.0 +8.6
06 17.01 штиль 0 4000 м мгла ясно +23.6 +5.4 31 +24 +40 комфорт 1016.2 1016.0
09 17.01 ЮЗ 1 4000 м мгла ясно +26.8 +6.2 27 +26 +34 жарко 1012.3 1012.0
12 17.01 штиль 0 4000 м мгла ясно +23.6 +8.7 39 +24 +24 комфорт 1012.5 1013.0 +27.5
15 17.01 штиль 0 4000 м мгла ясно +19.0 +10.5 58 +20 +20 1014.4 1014.0
18 17.01 штиль 0 4000 м мгла ясно +15.8 +10.1 69 +16 +16 1015.4 1015.0
21 17.01 штиль 0 4000 м мгла ясно +14.0 +10.2 78 +14 +14 1014.8 1015.0
00 18.01 штиль 0 2000 м мгла ясно +11.0 +9.4 90 +10 +10 1015.7 1016.0
03 18.01 штиль 0 2000 м мгла ясно +14.0 +8.9 71 +14 +19 1018.3 1018.0 +9.8
06 18.01 штиль 0 4000 м мгла ясно +23.6 +6.6 33 +24 +40 комфорт 1016.5 1017.0
09 18.01 штиль 0 4000 м ясно +27.6 +5.1 24 +27 +36 жарко 1012.5 1013.0
12 18.01 штиль 0 4000 м ясно +25.8 +12.8 44 +28 +28 жарко 1012.7 1013.0 +28.1
15 18.01 штиль 0 4000 м ясно +19.0 +10.9 59 +20 +20 1015.1 1015.0
18 18.01 штиль 0 4000 м ясно +16.0 +9.9 67 +16 +16 1016.0 1016.0
21 18.01 штиль 0 4000 м ясно +13.8 +10.4 80 +13 +13 1015.6 1016.0
00 19.01 штиль 0 2000 м мгла ясно +10.8 +9.6 92 +10 +10 1016.6 1017.0
03 19.01 штиль 0 2000 м мгла ясно +13.4 +6.8 64 +13 +19 1018.7 1019.0 +9.5
06 19.01 штиль 0 4000 м мгла ясно +23.4 +6.3 33 +24 +40 комфорт 1017.4 1017.0
09 19.01 штиль 0 4000 м ясно +27.4 +5.4 25 +26 +36 жарко 1014.0 1014.0
12 19.01 штиль 0 4000 м ясно +24.8 +8.5 35 +25 +25 комфорт 1014.5 1015.0 +28.4
15 19.01 штиль 0 4000 м ясно +19.4 +9.7 53 +20 +20 1016.3 1016.0
18 19.01 штиль 0 4000 м ясно +15.4 +8.8 65 +15 +15 1017.2 1017.0
21 19.01 штиль 0 4000 м ясно +13.2 +8.4 73 +13 +13 1017.1 1017.0
00 20.01 штиль 0 2000 м мгла ясно +10.4 +8.4 87 +10 +10 1017.5 1018.0
03 20.01 штиль 0 2000 м мгла ясно +14.2 +6.3 59 +14 +19 1020.0 1020.0 +9.1
06 20.01 штиль 0 2000 м мгла ясно +24.4 +7.3 33 +25 +41 комфорт 1018.2 1018.0
09 20.01 ЮЗ 2 4000 м мгла ясно +28.6 +2.3 18 +26 +34 жарко 1014.5 1015.0
12 20.01 штиль 0 4000 м мгла ясно +26.0 +7.7 31 +26 +26 жарко 1014.3 1014.0 +29.3
15 20.01 штиль 0 4000 м мгла ясно +20.0 +7.1 43 +21 +21 комфорт 1015.5 1016.0
18 20.01 штиль 0 4000 м мгла ясно +16.4 +8.6 60 +16 +16 1016.3 1016.0
21 20.01 штиль 0 4000 м мгла ясно +14.0 +8.9 71 +14 +14 1016.0 1016.0
00 21.01 штиль 0 2000 м мгла ясно +11.2 +7.5 78 +11 +11 1016.6 1017.0
03 21.01 штиль 0 2000 м мгла ясно +13.8 +9.1 73 +13 +19 1019.2 1019.0 +10.0
06 21.01 штиль 0 4000 м мгла ясно +25.0 +8.6 35 +25 +42 комфорт 1017.5 1018.0
09 21.01 штиль 0 4000 м ясно +29.8 +7.3 24 +29 +38 жарко 1013.0 1013.0
12 21.01 штиль 0 4000 м ясно +27.0 +9.8 34 +27 +27 жарко 1013.1 1013.0 +31.1
15 21.01 штиль 0 4000 м ясно +21.0 +8.5 45 +22 +22 комфорт 1014.8 1015.0
18 21.01 штиль 0 4000 м ясно +17.2 +10.0 63 +17 +17 1015.2 1015.0
21 21.01 штиль 0 4000 м ясно +15.2 +10.3 73 +15 +15 1014.6 1015.0
00 22.01 штиль 0 4000 м ясно +12.4 +10.5 88 +12 +12 1015.7 1016.0
03 22.01 штиль 0 2000 м мгла ясно +15.6 +10.7 73 +15 +21 1017.8 1018.0 +11.3
06 22.01 штиль 0 4000 м мгла ясно +25.8 +12.3 43 +27 +44 жарко 1015.9 1016.0
09 22.01 ЮЗ 1 4000 м мгла ясно +30.2 +10.7 30 +30 +39 жарко 1012.4 1012.0
12 22.01 штиль 0 4000 м мгла ясно +27.0 +12.2 40 +28 +28 жарко 1012.9 1013.0 +30.4
15 22.01 штиль 0 4000 м мгла ясно +22.4 +13.8 58 +26 +26 жарко 1015.3 1015.0
18 22.01 штиль 0 4000 м мгла ясно +18.6 +12.5 68 +19 +19 1016.3 1016.0
21 22.01 штиль 0 4000 м мгла ясно +16.2 +12.2 77 +16 +16 1015.8 1016.0
00 23.01 штиль 0 2000 м мгла ясно +13.6 +10.5 82 +13 +13 1016.6 1017.0
03 23.01 штиль 0 2000 м мгла ясно +16.4 +12.8 79 +16 +22 1016.7 1017.0 +12.4
06 23.01 штиль 0 4000 м мгла ясно +26.6 +11.6 39 +28 +45 жарко 1015.4 1015.0
09 23.01 Ю 2 4000 м ясно +29.2 +11.2 33 +30 +37 жарко 1012.5 1013.0
12 23.01 Ю 1 4000 м ясно +28.0 +11.3 35 +29 +29 жарко 1012.7 1013.0 +30.0
15 23.01 штиль 0 2000 м мгла ясно +21.2 +14.0 63 +24 +24 комфорт 1014.6 1015.0
18 23.01 штиль 0 2000 м мгла ясно +19.2 +13.2 68 +20 +20 1015.1 1015.0

 

Местоположение метеостанции Джхарсугуда (Орисса, Индия): широта 21.92 долгота 84.08 высота над уровнем моря 230 м.

В архиве по умолчанию представлена погода в Джхарсугуде за последнюю неделю. Архивные данные за месяц целиком и за предыдущие месяцы, начиная с января 2011 года, Вы можете получить, выбрав интересующий диапазон дат из раскрывающегося списка и нажав кнопку "Ввод!".


*Определитесь, кто Вы:
робот инопланетянин человек

Внимание! Время в таблицах - всемирное. Для получения местного времени необходимо прибавить поправку, которая равна 5.5 ч.

Смотрите также архив погоды в соседних городах и на ближайших метеорологических станциях:

Погода в Сундаргархе (Орисса, Индия) (23 км)
Погода в Харакаде (Орисса, Индия) (50 км)
Погода в Самбалпуре (Орисса, Индия) (51 км)
Погода в Кендуджхаре (Орисса, Индия) (152 км)
Погода в Ангуле (Орисса, Индия) (161 км)
Погода в Пхулбани (Орисса, Индия) (161 км)
Погода в Амбикапуре (Чхаттисгарх, Индия) (163 км)
Погода в Чайбасе (Джаркханд, Индия) (192 км)
Погода в Титилагаре (Орисса, Индия) (198 км)
Погода в Биласпуре (Чхаттисгарх, Индия) (198 км)

Пояснения к столбцам:

Ветер - указаны скорость ветра в м/с - средняя за 10 мин, порывы в срок и между сроками (в фигурных скобках) и направление, откуда дует ветер: С - северный, СВ - северо-восточный, В - восточный, ЮВ - юго-восточный, Ю - южный, ЮЗ - юго-западный, З - западный, СЗ - северо-западный.
Видимость - горизонтальная дальность видимости в метрах или километрах. При видимости от 1 до 10 км при отсутствии осадков обычно наблюдается дымка, при ухудшении видимости до 1 км и менее - туман. В сухую погоду видимость может ухудшаться дымом, пылью или мглою.
Явления - указаны атмосферные явления, наблюдавшиеся в срок или в последний час перед сроком; фигурными скобками обозначены явления, наблюдавшиеся между сроками (за 1-3 часа до срока); квадратными скобками обозначены град или гололедные отложения с указанием их диаметра в мм.
Облачность - указаны через наклонную черту общая и нижняя облачность в баллах и высота нижней границы облаков в метрах; квадратными скобками обозначены формы облаков: Ci - перистые, Cs - перисто-слоистые, Cc - перисто-кучевые, Ac - высококучевые, As - высокослоистые, Sc - слоисто-кучевые, Ns - слоисто-дождевые, Cu - кучевые, Cb - кучево-дождевые. Подробнее классификацию облаков см. в Атласе облаков (PDF).
T - Температура воздуха - температура, измеренная на высоте 2 м над землей.
Td - Температура точки росы - температура, при понижении до которой содержащийся в воздухе водяной пар достигнет насыщения.
f - Относительная влажность воздуха - влажноcть воздуха, измеренная на высоте 2 м над землей.
Te - Эффективная температура - температура, которую ощущает одетый по сезону человек в тени. Характеристика душности погоды. При расчете учитывается влияние влажности воздуха и скорости ветра на теплоощущения человека.
Tes - Эффективная температура на солнце - температура, которую ощущает человек, с поправкой на солнечный нагрев. Характеристика знойности погоды. Зависит от высоты солнца над горизонтом, облачности и скорости ветра. Ночью, в пасмурную погоду, а также при ветре 12 м/с и более поправка равна нулю.
P - Атмосферное давление - приведенное к уровню моря атмосферное давление.
Po - Атмосферное давление - измеренное на уровне метеостанции атмосферное давление.
Tmin - Минимальная температура - минимум температуры воздуха на высоте 2 м над землей.
Tmax - Максимальная температура - максимум температуры воздуха на высоте 2 м над землей.
R - Количество осадков - Количество выпавших осадков за период времени, мм. При наведении курсора мыши на число - период времени, за который выпало указанное количество осадков.
R24 - Количество осадков - Количество выпавших осадков за 24 часа, мм.
S - Снежный покров - Высота снежного покрова, см. При наведении курсора мыши на число - состояние снежного покрова и степень покрытия местности в баллах.